This is the latest recevied weather packets stored in our database for station/object DM1RG-6. If no packets are shown the sender has not sent any weather packets the latest 10 day(s).
| Time | Temp. | Humidity | Pressure | Rain* | Wind** | Luminosity | Snow |
|---|---|---|---|---|---|---|---|
| 1777361044 | 8.89° C | 48% | 1025 hPa | 0 mm | - | - | - |
| 1777360683 | 8.89° C | 48% | 1024.9 hPa | 0 mm | - | - | - |
| 1777360323 | 8.33° C | 47% | 1025.1 hPa | 0 mm | - | - | - |
| 1777359963 | 8.33° C | 49% | 1025.1 hPa | 0 mm | - | - | - |
| 1777359603 | 8.33° C | 49% | 1025.1 hPa | 0 mm | - | - | - |
| 1777359244 | 7.78° C | 49% | 1025 hPa | 0 mm | - | - | - |
| 1777358164 | 7.78° C | 53% | 1024.8 hPa | 0 mm | - | - | - |
| 1777357803 | 7.22° C | 56% | 1024.8 hPa | 0 mm | - | - | - |
| 1777357443 | 7.22° C | 55% | 1024.9 hPa | 0 mm | - | - | - |
| 1777357084 | 6.67° C | 57% | 1024.9 hPa | 0 mm | - | - | - |
| 1777356724 | 7.22° C | 57% | 1024.8 hPa | 0 mm | - | - | - |
| 1777356363 | 6.67° C | 58% | 1024.8 hPa | 0 mm | - | - | - |
| 1777356004 | 6.11° C | 60% | 1024.8 hPa | 0 mm | - | - | - |
| 1777355284 | 6.11° C | 61% | 1024.7 hPa | 0 mm | - | - | - |
| 1777354564 | 5.56° C | 63% | 1024.7 hPa | 0 mm | - | - | - |
| 1777354204 | 5.56° C | 64% | 1024.6 hPa | 0 mm | - | - | - |
| 1777353844 | 5° C | 64% | 1024.7 hPa | 0 mm | - | - | - |
| 1777353483 | 5° C | 65% | 1024.5 hPa | 0 mm | - | - | - |
| 1777353124 | 5° C | 65% | 1024.5 hPa | 0 mm | - | - | - |
| 1777352764 | 4.44° C | 65% | 1024.6 hPa | 0 mm | - | - | - |
| 1777352404 | 4.44° C | 66% | 1024.5 hPa | 0 mm | - | - | - |
| 1777352043 | 4.44° C | 66% | 1024.5 hPa | 0 mm | - | - | - |
| 1777351684 | 4.44° C | 67% | 1024.4 hPa | 0 mm | - | - | - |
| 1777350963 | 3.89° C | 68% | 1024.2 hPa | 0 mm | - | - | - |
| 1777350604 | 3.33° C | 69% | 1024 hPa | 0 mm | - | - | - |
* Rain latest hour (hover to see other rain measurements)
** Current wind speed in m/s (hover to see current wind gust speed)